Regional Weather Roundup
Issued by NWS Grand Forks, ND

Home | Current Version | Previous Version | Text Only | Print | Product List | Glossary On
Versions: 1 2 3 4 5 6 7 8 9 10 11 12 13 14 15 16 17 18 19 20 21 22 23 24 25 26 27 28 29 30 31 32 33 34 35 36 37 38 39 40 41 42 43 44 45 46 47 48 49 50
000
ASUS43 KFGF 021910
RWRFGF
PRAIRIE TO PINES  WEATHER ROUNDUP
NATIONAL WEATHER SERVICE EASTERN NORTH DAKOTA/GRAND FORKS ND
200 PM CDT TUE SEP 02 2014

 **SATELLITE DATA USED TO AUGMENT SKY COVER AT AUTOMATED STATIONS**
 *****  WEATHER ACROSS EASTERN NORTH DAKOTA  *****

CITY           SKY/WX    TMP DP  RH WIND       PRES   REMARKS
GRAND FORKS    MOSUNNY   74  56  53 S16G22    29.73F
GRAND FRKS AFB MOSUNNY   73  57  57 S13       29.74F
GRAND FRKS NWS   N/A     72 N/A N/A S9          N/A
DEVILS LAKE    SUNNY     72  54  53 SW16      29.71F
FARGO          MOSUNNY   77  52  41 SW10G20   29.79F
WAHPETON ARPT  CLEAR     77  46  33 SW12G17   29.82F
$$

 ***** WEATHER ACROSS CENTRAL AND WESTERN NORTH DAKOTA  *****

CITY           SKY/WX    TMP DP  RH WIND       PRES   REMARKS
BISMARCK       SUNNY     79  51  37 W9        29.79F
MINOT          SUNNY     75  47  36 W21       29.72R
JAMESTOWN      SUNNY     76  52  43 S12       29.77F
MINOT AFB      SUNNY     74  52  45 W20G28    29.71R
GARRISON         N/A     76  46  34 W21G26    29.76S
WILLISTON      SUNNY     74  46  36 W15       29.77F
DICKINSON      PTSUNNY   73  46  38 W13G21    29.82S
HETTINGER      SUNNY     74  49  41 W12       29.86S
$$

 *****  OTHER AIRPORT OBSERVATIONS IN OUR AREA  *****

CITY           SKY/WX    TMP DP  RH WIND       PRES   REMARKS
WALHALLA       FAIR      75  48  38 SW8G18    29.68F
GRAFTON AIRPOR FAIR      73  52  46 SW13G18   29.71S
VALLEY CITY AR FAIR      75  54  46 SW14      29.79F
CANDO          FAIR      75  52  43 W14G20    29.71F
CAVALIER APRT  FAIR      73  55  53 S9        29.69F
GWINNER        CLEAR     75  57  53 SW14      29.83F
ROLLA          FAIR      70  54  56 SW16G24   29.71S
 ***** THE ABOVE OBSERVATIONS ARE NON NWS ARE NOT QUALITY
       CONTROLLED AND MAY MIS-REPORT RAIN FOR SNOW...
$$

  *****  WEATHER ACROSS NORTHERN MINNESOTA  *****

CITY           SKY/WX    TMP DP  RH WIND       PRES   REMARKS
FLAG ISLAND    MOSUNNY   68  52  56 SW7       29.73S
WARROAD        PTSUNNY   70  54  56 SW7       29.76F
ROSEAU         MOSUNNY   72  54  53 S7        29.74F
HALLOCK        SUNNY     73  52  46 S14       29.70F
THF RVR FALLS  MOSUNNY   70  52  52 S9        29.76S
BAUDETTE       CLOUDY    69  50  50 VRB6      29.76S
WASKISH        PTSUNNY   68  57  68 SW5       29.80R
CROOKSTON      MOSUNNY   70  55  60 S15       29.76F
$$
  *****  WEATHER ACROSS CENTRAL AND WEST MINNESOTA  *****

CITY           SKY/WX    TMP DP  RH WIND       PRES   REMARKS
FOSSTON        PTSUNNY   72  55  56 S8        29.80F
BEMIDJI        MOSUNNY   72  52  48 W10G20    29.80S
PARK RAPIDS    MOSUNNY   75  51  43 SW17      29.84S
ELBOW LAKE     FAIR      74  56  51 SW15      29.86S
WADENA         SUNNY     73  52  46 W12G18    29.85S
DETROIT LAKES  MOSUNNY   73  54  49 SW13G18   29.84S
MOORHEAD       MOSUNNY   75  54  46 SW10      29.81F
FERGUS FALLS   SUNNY     75  48  38 SW13G20   29.83F
MORRIS MN      SUNNY     79  55  44 SW13      29.86F
STAPLES        SUNNY     73  48  40 SW12      29.86R
$$
  *****  WEATHER ELSEWHERE ACROSS MINNESOTA  *****

CITY           SKY/WX    TMP DP  RH WIND       PRES   REMARKS
DULUTH         MOSUNNY   73  49  42 W15G24    29.82S
INTRNTL FALLS  SUNNY     71  49  45 W10       29.76S
ELY            MOSUNNY   70  48  46 W13G20    29.78S
CLOQUET        MOSUNNY   73  45  35 SW13      29.84S
WHEATON        SUNNY     73  54  49 SW10      29.86F
BRAINERD       SUNNY     73  50  44 W14       29.85S
HIBBING        MOSUNNY   75  48  38 W12G18    29.80S
ALEXANDRIA     SUNNY     74  54  49 S14G21    29.88F
SAINT CLOUD    MOSUNNY   78  51  38 SW12      29.88S
MINNEAPOLIS    MOSUNNY   77  51  40 SW12G20   29.89F
$$

  *****  WEATHER ACROSS SOUTH DAKOTA  *****

CITY           SKY/WX    TMP DP  RH WIND       PRES   REMARKS
SIOUX FALLS    MOSUNNY   74  55  51 W6        29.94F
BROOKINGS      NOT AVBL
WATERTOWN      SUNNY     74  53  48 SW16G23   29.90F
HURON          SUNNY     78  50  37 SW14G20   29.89F
SISSETON         N/A     79  52  38 W14G22    29.84F
ABERDEEN       SUNNY     76  54  46 SW13G20   29.85F
MITCHELL       SUNNY     76  55  48 SW7       29.93F
PIERRE         SUNNY     79  51  37 SW12      29.86F
MOBRIDGE       SUNNY     80  48  32 W13       29.81F
RAPID CITY     SUNNY     78  49  35 VRB6      29.89F
$$

  *****  SOME WEATHER IN NEARBY STATES *****

CITY           SKY/WX    TMP DP  RH WIND       PRES   REMARKS
GLASGOW MT     PTSUNNY   70  43  37 VRB7      29.80F
GREAT FALLS MT CLOUDY    67  37  33 W15G22    29.82F
CHEYENNE WY    SUNNY     76  37  24 SW9G17    30.09F
SCOTTSBLUFF NE SUNNY     84  39  20 W10       29.97F
OMAHA NE       MOSUNNY   78  55  44 VRB6      30.00R
DES MOINES IA  MOSUNNY   79  58  48 VRB3      29.98R
DAVENPORT IA   MOSUNNY   77  63  61 SW7       29.95R
CHICAGO IL     MOSUNNY   81  56  42 NW8       29.90R
EAU CLAIRE WI  MOSUNNY   77  56  48 W12       29.88S
LA CROSSE WI   SUNNY     79  57  46 W10       29.90S
$$

  *****  SOME NATIONAL WEATHER *****

CITY           SKY/WX    TMP DP  RH WIND       PRES   REMARKS
LA GUARDIA NY  PTSUNNY   91  67  44 SW12      29.83F HX  94
RALEIGH NC     MOSUNNY   95  68  41 SW9       30.01F HX  99
ATLANTA GA     TSTM      79  70  73 NW20G25   30.09R
NEW ORLEANS LA PTSUNNY   92  71  50 S8        30.03F HX  98
OKLAHOMA CITY  PTSUNNY   84  70  62 SE20      29.98F
ALBUQUERQUE NM MOSUNNY   88  36  15 VRB6      30.13F
SALT LAKE CITY SUNNY     83  39  21 VRB5      29.97F
LOS ANGELES CA MOSUNNY   77  62  59 W12       29.85S
BOISE ID       SUNNY     81  36  19 SE7       29.90F
SEATTLE WA     PTSUNNY   64  56  75 SW13      29.91F
$$

*** WEATHER ACROSS MANITOBA...SASKATCHEWAN AND ONTARIO ***
                ***ONTARIO***

CITY           SKY/WX    TMP DP  RH WIND       PRES   REMARKS
GERALDTON      MOSUNNY   66  50  55 NW12G17   29.69S
THUNDER BAY    PTSUNNY   73  48  40 W12       29.73S
SIOUX LOOKOUT  PTSUNNY   68  50  52 SW9       29.71S
TORONTO        TSTM      64  63  94 W7        29.80F FOG
BIG TROUT LK     N/A     64  55  72 MISG      29.58S
PICKLE LAKE    TSTM      57  46  67 NW10G38   29.68R
DRYDEN         MOSUNNY   68  48  49 SW16G22   29.73S
KENORA         PTSUNNY   68  48  49 SW12      29.73F
$$
                *** MANITOBA***

CITY           SKY/WX    TMP DP  RH WIND       PRES   REMARKS
BRANDON        PTSUNNY   70  54  56 W8        29.70R
DAUPHIN        MOSUNNY   61  54  77 SW8       29.68F
ISLAND LAKE    LGT RAIN  63  54  72 W6        29.57
PILOT MOUND      N/A     70  50  49 W8          N/A
THE PAS        PTSUNNY   66  48  52 NW10      29.60S
THOMPSON       PTSUNNY   64  50  59 W13       29.51
WINNIPEG       NOT AVBL
LYNN LAKE      PTSUNNY   54  48  82 MISG      29.57R
CHURCHILL      CLOUDY    54  52  94 E14       29.52R
GILLAM         PTSUNNY   66  52  59 S3        29.48F
$$
                ***SASKATCHEWAN***

CITY           SKY/WX    TMP DP  RH WIND       PRES   REMARKS
ESTEVAN        MOSUNNY   70  50  49 NW16      29.75R
KINDERSLEY     NOT AVBL
LLOYDMINSTER   NOT AVBL
PRINCE ALBERT  PTSUNNY   61  48  63 NW8       29.69S
REGINA         MOSUNNY   64  50  59 NW14G20   29.75R
YORKTON        CLOUDY    64  48  55 NW9       29.69S
N. BATTLEFORD  MOSUNNY   63  46  55 NW7       29.74F
LA RONGE       PTSUNNY   63  45  51 W12       29.66S
SASKATOON      PTSUNNY   61  46  59 NW9       29.74S
SWIFT CURRENT  PTSUNNY   64  41  42 CALM      29.75F
$$
NOTE: THESE ARE AUTOMATED STATIONS WITH LIMITED QUALITY CONTROL
      "FAIR" INDICATES FEW OR NO CLOUDS BELOW 12,000 FEET WITH NO
      SIGNIFICANT WEATHER AND/OR OBSTRUCTIONS TO VISIBILITY.
      SKY/WX - SKY CONDITION AND SIGNIFICANT WEATHER.
      TMP - AIR TEMPERATURE.    DP   - DEWPOINT TEMPERATURE.
      RH  - RELATIVE HUMIDITY.  PRES - PRESSURE.
      HX  - HEAT INDEX.         WCI  - WIND CHILL INDEX.
$


USA.gov is the U.S. government's official web portal to all federal, state and local government web resources and services.